DW8108 Weather Reports


Display with metric or nautical units.
time (UTC)temp
F
wind
direction
speed
MPH
gust
MPH
rain 1hr
in
rain 24hr
in
rain mn
in
humidity
%
barometer
mb
20260904144544 86 0.0 7.0 0.00 0.00 0.00 77 1013.1
20260904143042 85 0.0 6.0 0.00 0.00 0.00 81 1012.8
20260904141539 84 0.0 2.0 0.00 0.00 0.00 83 1012.9
20260904140048 82 0.0 4.0 0.00 0.00 0.00 85 1012.9
20260904134530 81 0.0 4.0 0.00 0.00 0.00 88 1012.9
20260904133027 80 0.0 0.0 0.00 0.00 0.00 93 1013.0
20260904131522 78 0.0 0.0 0.00 0.00 0.00 94 1012.9
20260904130033 77 0.0 0.0 0.00 0.00 0.00 95 1012.7
20260904124518 75 0.0 2.0 0.00 0.00 0.00 96 1012.6
20260904123015 74 0.0 2.0 0.00 0.00 0.00 96 1012.3
20260904121515 73 0.0 2.0 0.00 0.00 0.00 95 1012.0
20260904120016 73 0.0 2.0 0.00 0.00 0.00 95 1012.0
20260904114513 73 0.0 2.0 0.00 0.00 0.00 95 1011.5
20260904113013 73 0.0 2.0 0.00 0.00 0.00 95 1011.4
20260904111528 73 0.0 4.0 0.00 0.00 0.00 95 1011.4
20260904110011 73 0.0 3.0 0.00 0.00 0.00 95 1011.4
20260904104511 73 0.0 4.0 0.00 0.00 0.00 95 1011.3
20260904103015 73 0.0 4.0 0.00 0.00 0.00 95 1011.3
20260904101509 73 0.0 3.0 0.00 0.00 0.00 95 1011.3
20260904100008 74 0.0 3.0 0.00 0.00 0.00 95 1011.5
20260904094506 74 0.0 2.0 0.00 0.00 0.00 95 1011.8
20260904093006 74 0.0 1.0 0.00 0.00 0.00 95 1012.0
20260904091505 74 0.0 0.0 0.00 0.00 0.00 94 1012.0
20260904090005 74 0.0 0.0 0.00 0.00 0.00 95 1011.9
20260904084504 75 0.0 2.0 0.00 0.00 0.00 95 1011.8
20260904083002 75 0.0 3.0 0.00 0.00 0.00 95 1011.6
20260904081506 75 0.0 4.0 0.00 0.00 0.00 95 1011.3
20260904080002 75 0.0 5.0 0.00 0.00 0.00 95 1011.1
20260904074612 75 0.0 7.0 0.00 0.00 0.00 95 1011.0
20260904073102 75 0.0 6.0 0.00 0.00 0.00 94 1011.2
20260904071554 75 0.0 4.0 0.00 0.00 0.00 94 1011.6
20260904070053 75 0.0 1.0 0.00 0.00 0.00 94 1012.0
20260904064551 75 0.0 3.0 0.00 0.00 0.00 94 1012.3
20260904063101 76 0.0 4.0 0.00 0.00 0.00 94 1012.3
20260904061548 76 0.0 4.0 0.00 0.00 0.00 93 1012.4
20260904060047 76 0.0 4.0 0.00 0.00 0.00 93 1012.4
20260904054545 76 0.0 4.0 0.00 0.00 0.00 93 1012.4
20260904053045 76 0.0 4.0 0.00 0.00 0.00 92 1012.4
20260904051558 76 0.0 4.0 0.00 0.00 0.00 92 1012.4
20260904050040 77 0.0 5.0 0.00 0.00 0.00 92 1012.3
20260904044540 77 0.0 6.0 0.00 0.00 0.00 92 1012.4
20260904043039 77 0.0 5.0 0.00 0.00 0.00 92 1012.4
20260904041542 77 0.0 5.0 0.00 0.00 0.00 91 1012.5
20260904040039 77 0.0 5.0 0.00 0.00 0.00 91 1012.6
20260904034537 78 0.0 5.0 0.00 0.00 0.00 91 1012.5
20260904033037 78 0.0 5.0 0.00 0.00 0.00 90 1012.4
20260904031537 78 0.0 3.0 0.00 0.00 0.00 90 1012.4
20260904030036 78 0.0 4.0 0.00 0.00 0.00 89 1012.5
20260904024536 79 0.0 4.0 0.00 0.00 0.00 89 1012.5
20260904023037 79 0.0 2.0 0.00 0.00 0.00 88 1012.4
20260904021537 79 0.0 5.0 0.00 0.00 0.00 88 1012.1
20260904020036 79 0.0 6.0 0.00 0.00 0.00 88 1012.0
20260904014633 79 0.0 6.0 0.00 0.00 0.00 87 1011.8
20260904013033 80 0.0 3.0 0.00 0.00 0.00 87 1011.7
20260904011537 81 0.0 6.0 0.00 0.00 0.00 86 1011.7
20260904010044 82 0.0 4.0 0.00 0.00 0.00 84 1011.4
20260904004531 83 0.0 5.0 0.00 0.00 0.00 83 1011.3
20260904003031 84 0.0 4.0 0.00 0.00 0.00 82 1011.3
20260904001532 85 0.0 3.0 0.00 0.00 0.00 81 1011.3
20260904000033 87 0.0 2.0 0.00 0.00 0.00 80 1011.3
20260903234529 88 0.0 2.0 0.00 0.00 0.00 79 1011.4
20260903233029 89 0.0 3.0 0.00 0.00 0.00 77 1011.4
20260903231529 89 0.0 4.0 0.00 0.00 0.00 75 1011.2
20260903230028 90 0.0 3.0 0.00 0.00 0.00 74 1011.2
20260903224527 91 0.0 4.0 0.00 0.00 0.00 71 1011.4
20260903223034 91 0.0 4.0 0.00 0.00 0.00 70 1011.4
20260903221527 91 0.0 4.0 0.00 0.00 0.00 69 1011.3
20260903220026 92 0.0 4.0 0.00 0.00 0.00 69 1011.4
20260903214525 92 0.0 4.0 0.00 0.00 0.00 69 1011.4
20260903213024 91 0.0 4.0 0.00 0.00 0.00 69 1011.3
20260903211524 91 0.0 5.0 0.00 0.00 0.00 70 1011.4
20260903210022 90 0.0 6.0 0.00 0.00 0.00 69 1011.5
20260903204523 90 0.0 5.0 0.00 0.00 0.00 70 1011.7
20260903203032 90 0.0 7.0 0.00 0.00 0.00 70 1011.7
20260903201520 89 0.0 6.0 0.00 0.00 0.00 71 1011.8
20260903200019 88 0.0 10.0 0.00 0.00 0.00 72 1011.8
20260903194516 88 0.0 12.0 0.00 0.00 0.00 71 1012.0
20260903193016 89 0.0 11.0 0.00 0.00 0.00 70 1012.3
20260903191515 89 0.0 15.0 0.00 0.00 0.00 70 1012.4
20260903190016 88 0.0 14.0 0.00 0.00 0.00 68 1012.6
20260903184516 91 0.0 19.0 0.00 0.00 0.00 67 1012.5
20260903183014 94 0.0 15.0 0.00 0.00 0.00 63 1012.6
20260903181512 94 0.0 7.0 0.00 0.00 0.00 65 1012.3
20260903180010 94 0.0 10.0 0.00 0.00 0.00 66 1012.3
20260903174517 94 0.0 11.0 0.00 0.00 0.00 63 1012.4
20260903173009 94 0.0 11.0 0.00 0.00 0.00 64 1012.5
20260903171507 93 0.0 8.0 0.00 0.00 0.00 67 1012.4
20260903170005 92 0.0 8.0 0.00 0.00 0.00 69 1012.3
20260903164502 92 0.0 5.0 0.00 0.00 0.00 68 1012.3
20260903163108 91 0.0 6.0 0.00 0.00 0.00 69 1012.3
20260903161558 91 0.0 7.0 0.00 0.00 0.00 69 1012.4
20260903160106 90 0.0 6.0 0.00 0.00 0.00 70 1012.5
20260903154553 89 0.0 7.0 0.00 0.00 0.00 72 1012.6
20260903153051 88 0.0 6.0 0.00 0.00 0.00 72 1012.7
20260903151547 87 0.0 7.0 0.00 0.00 0.00 74 1012.9
20260903150043 86 0.0 6.0 0.00 0.00 0.00 77 1012.9